[[{"header":{"parameterUnit":"m.s-1","parameterCategory":1,"la1":30.2992,"la2":30.254,"lo1":-89.0895,"lo2":-89.0443,"dy":0.0025,"dx":0.0025,"nx":19,"ny":19,"refTime":"2026-03-29T09:00:00:Z","depth":0,"parameterNumber":2,"parameterNumberName":"U-component_of_WINDS"},"data":[0,0,0,-8.7334,-8.7339,-8.7595,-8.7596,-8.7932,-8.7935,0,0,0,0,0,0,0,0,0,0,0,-8.7267,-8.727,-8.7333,-8.734,-8.7595,-8.7596,-8.7931,-8.7935,0,0,0,0,0,0,0,0,0,0,0,-8.7266,-8.7269,-8.7272,-8.7341,-8.7595,-8.7596,-8.7931,-8.7734,0,0,0,0,0,0,0,0,0,0,-8.7484,-8.7432,-8.7268,-8.7273,-8.7343,-8.7595,-8.7596,-8.7724,-8.7746,-8.7821,0,-8.7893,0,-8.792,-8.7958,-8.796,0,0,0,-8.7332,-8.7414,-8.7475,-8.7273,-8.7345,-8.7594,-8.7478,-8.7736,-8.7761,-8.785,-8.7898,-8.791,-8.7926,-8.7961,-8.7962,-8.8427,-8.8429,0,0,-8.7318,-8.7317,-8.7458,-8.7491,-8.7457,-8.747,-8.7486,-8.7751,-8.7802,-8.7899,-8.7918,-8.7931,-8.7963,-8.7966,-8.8425,-8.8428,0,0,0,-8.7283,-8.7308,-8.7362,-8.7478,-8.7524,-8.7477,-8.7496,-8.779,-8.7808,-8.7921,-8.7935,-8.7965,-8.7969,-8.8422,-8.8426,-8.8547,0,0,0,-8.7274,-8.7287,-8.7356,-8.7358,-8.7519,-8.7661,-8.7529,-8.7789,-8.7819,-8.7933,-8.7965,-8.7973,-8.8419,-8.8424,-8.8538,-8.8604,0,0,0,-8.7247,-8.7284,-8.7324,-8.7357,-8.7468,-8.7656,-8.769,-8.7796,-8.7828,-8.796,-8.7974,-8.8417,-8.8423,-8.853,-8.859,-8.8723,0,0,0,-8.7217,-8.7429,-8.7326,-8.7568,-8.7466,-8.7732,-8.7688,-8.7886,-8.8014,-8.7967,-8.8419,-8.8425,-8.8527,-8.8582,-8.8714,-8.8831,-8.8881,0,0,-8.7484,-8.7461,-8.7604,-8.7519,-8.7803,-8.7693,-8.7995,-8.8112,-8.8125,-8.8324,-8.8336,-8.8541,-8.8589,-8.8721,-8.917,-8.921,0,0,0,-8.7687,-8.7789,-8.7865,-8.7988,-8.8084,-8.817,-8.8242,-8.8285,-8.8455,-8.8229,-8.8627,-8.8656,-8.8733,-8.8789,-8.8823,-8.8887,-8.8452,-8.8452,-8.8451,-8.8059,-8.8066,-8.83,-8.8338,-8.8457,-8.8529,-8.8625,-8.8695,-8.8666,-8.8761,-8.8818,-8.909,-8.9156,-8.9181,-8.9248,-8.8885,-8.8885,-8.8885,-8.8886,-8.8446,-8.8588,-8.8547,-8.8759,-8.8764,-8.8941,-8.9018,-8.8992,-8.9154,-8.9048,-8.9116,-8.8994,-8.9225,-8.9283,-8.8895,-8.8894,-8.8892,-8.8891,-8.8891,-8.8686,-8.8755,-8.8806,-8.8983,-8.9118,-8.9149,-8.9307,-8.9307,-8.9307,-8.9375,-8.9433,-8.9431,-8.9425,-8.9404,-8.9405,-8.9406,-8.9407,-8.9407,-8.9408,-8.8912,-8.8966,-8.9101,-8.9222,-8.9299,-8.9401,-8.9476,-8.9552,-8.9634,-8.9621,-8.9621,-8.958,-8.9249,-8.9162,-8.9423,-8.942,-8.9418,-8.9417,-8.9416,-8.9293,-8.9207,-8.9415,-8.9493,-8.9633,-8.9765,-8.9764,-8.9918,-8.998,-9.0058,-9.0004,-8.9761,-8.9736,-8.9709,-8.9637,-9.0005,-9.0005,-9.0005,-9.0005,-8.9491,-8.9481,-8.9692,-8.9816,-8.9938,-8.9959,-9.0189,-9.025,-9.0298,-9.0336,-9.0284,-9.0191,-9.0163,-9.0155,-9.0118,-9.005,-9.0516,-9.0516,-9.0516,-8.9723,-8.9724,-8.9922,-8.997,-9.008,-9.0173,-9.0389,-9.053,-9.0567,-9.0537,-9.0365,-9.0343,-9.0192,-9.0144,-9.0104,-9.0047,-8.9924,0,0]},{"header":{"parameterUnit":"m.s-1","parameterCategory":1,"la1":30.2992,"la2":30.254,"lo1":-89.0895,"lo2":-89.0443,"dy":0.0025,"dx":0.0025,"nx":19,"ny":19,"refTime":"2026-03-29T09:00:00:Z","depth":0,"parameterNumber":3,"parameterNumberName":"V-component_of_WINDS"},"data":[0,0,0,3.0573,3.0574,3.0627,3.0627,3.069,3.0691,0,0,0,0,0,0,0,0,0,0,0,3.0557,3.0557,3.0573,3.0574,3.0627,3.0627,3.069,3.0691,0,0,0,0,0,0,0,0,0,0,0,3.0556,3.0557,3.0557,3.0574,3.0627,3.0627,3.069,3.0651,0,0,0,0,0,0,0,0,0,0,3.06,3.0585,3.0557,3.0557,3.0575,3.0627,3.0627,3.0649,3.0654,3.0665,0,3.0677,0,3.0685,3.0695,3.0695,0,0,0,3.0574,3.0582,3.0597,3.0557,3.0575,3.0627,3.0603,3.0652,3.0657,3.0671,3.0678,3.068,3.0686,3.0695,3.0695,3.0766,3.0766,0,0,3.0571,3.0565,3.0593,3.06,3.0594,3.0601,3.0605,3.0655,3.0661,3.0678,3.0681,3.0687,3.0696,3.0696,3.0765,3.0766,0,0,0,3.0563,3.0563,3.0577,3.0597,3.0607,3.0603,3.0607,3.0659,3.0664,3.0682,3.0688,3.0696,3.0697,3.0765,3.0765,3.0776,0,0,0,3.0561,3.0558,3.0576,3.0572,3.0606,3.0634,3.061,3.0661,3.0666,3.0687,3.0696,3.0697,3.0765,3.0765,3.0775,3.0781,0,0,0,3.0553,3.0557,3.0565,3.0572,3.0595,3.0633,3.0642,3.0662,3.067,3.0695,3.0697,3.0764,3.0765,3.0774,3.0779,3.0796,0,0,0,3.0542,3.0573,3.0565,3.0601,3.0594,3.0641,3.0641,3.0676,3.0699,3.0696,3.0765,3.0765,3.0773,3.0778,3.0795,3.0809,3.0815,0,0,3.0577,3.0576,3.0598,3.0593,3.0639,3.0633,3.068,3.0706,3.0713,3.0747,3.0749,3.0775,3.0779,3.0796,3.0851,3.0855,0,0,0,3.0607,3.0622,3.0635,3.0658,3.068,3.0698,3.0719,3.0728,3.0758,3.073,3.0787,3.079,3.08,3.0806,3.081,3.0819,3.0769,3.0769,3.0769,3.0644,3.0654,3.069,3.0705,3.0727,3.0748,3.0766,3.0782,3.0784,3.0797,3.0807,3.0839,3.0847,3.0849,3.0858,3.0816,3.0816,3.0816,3.0816,3.0694,3.0716,3.072,3.0756,3.0765,3.0794,3.0815,3.0816,3.0843,3.0832,3.0842,3.0828,3.0854,3.0862,3.0817,3.0817,3.0817,3.0817,3.0817,3.0718,3.0731,3.0744,3.0777,3.0802,3.0817,3.0843,3.0851,3.0857,3.0867,3.0877,3.0877,3.0876,3.0872,3.0872,3.0872,3.0872,3.0872,3.0872,3.0738,3.0752,3.0775,3.0801,3.0817,3.0838,3.086,3.0875,3.0893,3.0896,3.0896,3.0895,3.0856,3.0845,3.0874,3.0874,3.0874,3.0873,3.0873,3.0781,3.0773,3.0808,3.0824,3.0855,3.0879,3.0889,3.0918,3.0932,3.0944,3.0943,3.0913,3.0912,3.0909,3.09,3.0942,3.0942,3.0942,3.0942,3.08,3.0802,3.0839,3.0864,3.0889,3.0901,3.0938,3.0956,3.0972,3.098,3.0976,3.0965,3.0962,3.0963,3.0958,3.095,3.1003,3.1003,3.1003,3.0827,3.0831,3.0862,3.088,3.0905,3.0927,3.0961,3.0988,3.1004,3.1006,3.0986,3.0984,3.0966,3.0961,3.0959,3.0953,3.0937,0,0]}]]